TimeAKST,TemperatureF,Dew PointF,Humidity,Sea Level PressureIn,VisibilityMPH,Wind Direction,Wind SpeedMPH,Gust SpeedMPH,PrecipitationIn,Events,Conditions,WindDirDegrees,DateUTC
12:53 AM,45.0,34.0,65,29.55,10.0,ESE,9.2,-,N/A,,Overcast,120,2013-01-23 09:53:00
1:53 AM,45.0,34.0,65,29.54,10.0,ESE,13.8,-,N/A,,Overcast,120,2013-01-23 10:53:00
3:53 AM,42.1,39.0,89,29.55,10.0,SSW,11.5,-,0.00,Rain,Light Rain,210,2013-01-23 12:53:00
4:53 AM,41.0,37.9,89,29.56,9.0,South,4.6,-,0.02,Rain,Light Rain,170,2013-01-23 13:53:00
5:53 AM,41.0,37.9,89,29.56,7.0,SSE,8.1,-,0.02,Rain,Light Rain,160,2013-01-23 14:53:00
6:53 AM,41.0,37.9,89,29.57,7.0,SE,6.9,-,0.01,,Overcast,140,2013-01-23 15:53:00
7:53 AM,41.0,37.0,86,29.57,10.0,ESE,11.5,-,0.00,,Overcast,120,2013-01-23 16:53:00
8:05 AM,39.2,37.4,93,29.56,10.0,ESE,10.4,-,N/A,,Overcast,120,2013-01-23 17:05:00
8:46 AM,39.2,37.4,93,29.57,10.0,SE,10.4,-,N/A,,Overcast,130,2013-01-23 17:46:00
8:53 AM,39.9,37.0,89,29.57,10.0,ESE,10.4,-,N/A,,Overcast,120,2013-01-23 17:53:00
9:53 AM,41.0,36.0,82,29.57,10.0,ESE,9.2,-,N/A,,Overcast,120,2013-01-23 18:53:00
10:53 AM,42.1,36.0,79,29.57,10.0,SSE,9.2,-,N/A,,Overcast,150,2013-01-23 19:53:00
11:53 AM,42.1,35.1,76,29.56,10.0,ESE,9.2,-,N/A,,Overcast,120,2013-01-23 20:53:00
12:53 PM,43.0,36.0,76,29.56,10.0,SSE,10.4,-,0.00,Rain,Light Rain,160,2013-01-23 21:53:00
1:53 PM,43.0,36.0,76,29.56,10.0,SE,9.2,-,0.00,Rain,Light Rain,140,2013-01-23 22:53:00
2:53 PM,42.1,36.0,79,29.56,10.0,SE,8.1,-,0.01,Rain,Light Rain,140,2013-01-23 23:53:00
3:53 PM,41.0,37.0,86,29.57,10.0,South,5.8,-,0.01,Rain,Light Rain,170,2013-01-24 00:53:00
4:53 PM,42.1,36.0,79,29.58,10.0,SE,9.2,-,0.01,Rain,Light Rain,130,2013-01-24 01:53:00
5:26 PM,41.0,35.6,81,29.58,10.0,SE,9.2,-,0.01,Rain,Light Rain,140,2013-01-24 02:26:00
5:53 PM,41.0,36.0,82,29.59,10.0,ESE,8.1,-,0.01,Rain,Light Rain,120,2013-01-24 02:53:00
6:53 PM,39.9,37.0,89,29.62,6.0,SSE,10.4,-,0.03,Rain,Rain,160,2013-01-24 03:53:00
7:53 PM,39.0,37.0,93,29.64,10.0,East,8.1,-,0.05,Rain,Light Rain,100,2013-01-24 04:53:00
8:53 PM,39.0,37.0,93,29.65,6.0,ESE,11.5,-,0.04,Rain,Rain,120,2013-01-24 05:53:00
9:53 PM,37.9,37.0,97,29.67,5.0,ENE,3.5,-,0.09,Rain,Light Rain,70,2013-01-24 06:53:00
10:34 PM,37.4,37.4,100,29.68,10.0,East,4.6,-,0.00,Rain,Light Rain,90,2013-01-24 07:34:00
10:44 PM,37.4,37.4,100,29.69,5.0,East,8.1,-,0.02,Rain,Light Rain,90,2013-01-24 07:44:00
10:53 PM,39.0,37.0,93,29.69,6.0,ESE,9.2,-,0.02,Rain,Light Rain,120,2013-01-24 07:53:00
11:24 PM,37.4,37.4,100,29.69,10.0,East,4.6,-,0.00,,Overcast,100,2013-01-24 08:24:00
11:42 PM,37.4,37.4,100,29.69,8.0,ESE,5.8,-,0.00,Rain,Light Rain,110,2013-01-24 08:42:00
11:53 PM,37.9,37.0,97,29.70,10.0,ESE,8.1,-,0.00,Rain,Light Rain,120,2013-01-24 08:53:00